Radiation Dose at Monitoring Post of Fukushima Daini Nuclear Power Station
Date,Time,MP-1(microSv/h),MP-2(microSv/h),MP-3(microSv/h),MP-4(microSv/h),MP-5(microSv/h),MP-6(microSv/h),MP-7(microSv/h),Wind Direction,Wind Velocity(m/s),Rain
2017/09/22,00:00,0.346,0.217,0.353,0.335,0.319,0.175,0.103,west-southwest,1.9,No
2017/09/22,00:10,0.350,0.215,0.352,0.330,0.318,0.174,0.104,west-southwest,1.1,No
2017/09/22,00:20,0.345,0.216,0.355,0.333,0.318,0.174,0.104,southwest,1.9,No
2017/09/22,00:30,0.348,0.216,0.353,0.330,0.319,0.175,0.104,southwest,0.7,No
2017/09/22,00:40,0.346,0.216,0.353,0.333,0.319,0.175,0.104,north-northwest,0.5,No
2017/09/22,00:50,0.348,0.218,0.354,0.331,0.317,0.174,0.103,north-northeast,1.4,No
2017/09/22,01:00,0.345,0.216,0.356,0.334,0.319,0.176,0.104,east-northeast,1.4,No
2017/09/22,01:10,0.348,0.216,0.355,0.333,0.319,0.174,0.103,east-northeast,1.8,No
2017/09/22,01:20,0.347,0.216,0.355,0.333,0.319,0.175,0.105,east-northeast,1.4,No
2017/09/22,01:30,0.349,0.216,0.353,0.332,0.318,0.174,0.104,east-northeast,1.4,No
2017/09/22,01:40,0.346,0.216,0.354,0.332,0.319,0.174,0.105,east-northeast,1.0,No
2017/09/22,01:50,0.348,0.216,0.354,0.331,0.317,0.175,0.104,east-northeast,0.7,No
2017/09/22,02:00,0.347,0.216,0.354,0.333,0.319,0.174,0.104,northeast,1.1,No
2017/09/22,02:10,0.348,0.215,0.354,0.331,0.317,0.175,0.103,north-northeast,2.0,No
2017/09/22,02:20,0.344,0.216,0.355,0.332,0.317,0.174,0.104,north-northeast,1.9,No
2017/09/22,02:30,0.348,0.216,0.354,0.331,0.318,0.175,0.103,north-northeast,1.2,No
2017/09/22,02:40,0.345,0.216,0.352,0.331,0.317,0.174,0.104,east-northeast,1.2,No
2017/09/22,02:50,0.349,0.216,0.351,0.332,0.318,0.174,0.104,northeast,1.1,No
2017/09/22,03:00,0.345,0.215,0.352,0.331,0.318,0.174,0.103,northeast,1.6,No
2017/09/22,03:10,0.348,0.216,0.354,0.332,0.319,0.175,0.104,northeast,1.5,No
2017/09/22,03:20,0.345,0.215,0.354,0.331,0.316,0.175,0.104,north-northeast,1.8,No
2017/09/22,03:30,0.348,0.215,0.355,0.333,0.321,0.175,0.103,northeast,1.4,No
2017/09/22,03:40,0.346,0.215,0.352,0.330,0.317,0.174,0.105,north-northeast,2.0,No
2017/09/22,03:50,0.348,0.215,0.354,0.332,0.319,0.174,0.104,north-northeast,1.1,No
2017/09/22,04:00,0.345,0.215,0.352,0.331,0.317,0.173,0.104,north,1.0,No
2017/09/22,04:10,0.347,0.215,0.354,0.333,0.319,0.174,0.104,-,CALM,No
2017/09/22,04:20,0.345,0.215,0.354,0.330,0.317,0.174,0.104,north,0.8,No
2017/09/22,04:30,0.348,0.215,0.354,0.334,0.320,0.175,0.103,north,1.1,No
2017/09/22,04:40,0.346,0.216,0.352,0.331,0.317,0.174,0.105,north,0.8,No
2017/09/22,04:50,0.348,0.216,0.354,0.332,0.321,0.175,0.103,north,1.1,No
2017/09/22,05:00,0.346,0.215,0.352,0.330,0.317,0.174,0.103,north,1.1,No
2017/09/22,05:10,0.348,0.215,0.354,0.332,0.319,0.174,0.104,north-northwest,1.0,No
2017/09/22,05:20,0.345,0.216,0.352,0.329,0.316,0.174,0.103,north,1.4,No
2017/09/22,05:30,0.347,0.214,0.355,0.334,0.319,0.174,0.104,north-northwest,1.1,No
2017/09/22,05:40,0.346,0.215,0.352,0.331,0.317,0.174,0.103,north,0.5,No
2017/09/22,05:50,0.348,0.216,0.355,0.333,0.319,0.174,0.103,north-northwest,0.7,Yes
2017/09/22,06:00,0.344,0.216,0.351,0.330,0.318,0.175,0.103,north-northeast,0.8,No
2017/09/22,06:10,0.348,0.216,0.354,0.333,0.317,0.174,0.104,north,0.7,Yes
2017/09/22,06:20,0.344,0.215,0.350,0.329,0.317,0.174,0.103,north,0.7,No
2017/09/22,06:30,0.347,0.215,0.354,0.332,0.316,0.173,0.103,north,0.6,No
2017/09/22,06:40,0.345,0.214,0.353,0.330,0.318,0.174,0.103,-,CALM,No
2017/09/22,06:50,0.345,0.215,0.354,0.332,0.315,0.174,0.103,-,CALM,No
2017/09/22,07:00,0.347,0.215,0.354,0.330,0.318,0.174,0.103,north-northeast,0.8,No
2017/09/22,07:10,0.346,0.216,0.352,0.331,0.317,0.174,0.103,-,CALM,No
2017/09/22,07:20,0.349,0.215,0.354,0.331,0.315,0.173,0.103,-,CALM,No
2017/09/22,07:30,0.344,0.214,0.352,0.330,0.319,0.174,0.104,-,CALM,No
2017/09/22,07:40,0.348,0.215,0.352,0.333,0.314,0.173,0.103,-,CALM,No
2017/09/22,07:50,0.346,0.213,0.350,0.330,0.318,0.175,0.102,southeast,0.6,No
2017/09/22,08:00,0.344,0.215,0.354,0.329,0.319,0.175,0.103,-,CALM,No
2017/09/22,08:10,0.347,0.216,0.352,0.331,0.315,0.174,0.103,-,CALM,No
2017/09/22,08:20,0.345,0.213,0.351,0.330,0.317,0.174,0.103,-,CALM,No
2017/09/22,08:30,0.344,0.214,0.354,0.329,0.319,0.173,0.102,south-southwest,0.5,No
2017/09/22,08:40,0.348,0.215,0.350,0.328,0.315,0.174,0.103,south-southwest,0.5,No
2017/09/22,08:50,0.344,0.214,0.354,0.332,0.317,0.174,0.103,-,CALM,No
2017/09/22,09:00,0.344,0.214,0.352,0.331,0.318,0.172,0.101,-,CALM,No
2017/09/22,09:10,0.348,0.217,0.350,0.327,0.316,0.174,0.101,south,1.1,No
2017/09/22,09:20,0.343,0.214,0.354,0.332,0.314,0.174,0.102,south-southeast,0.5,No
2017/09/22,09:30,0.344,0.213,0.352,0.332,0.319,0.173,0.102,south-southwest,0.8,No
2017/09/22,09:40,0.347,0.215,0.352,0.329,0.318,0.174,0.101,south-southwest,0.9,No
2017/09/22,09:50,0.345,0.216,0.353,0.329,0.315,0.174,0.103,south-southeast,0.8,No
2017/09/22,10:00,0.343,0.214,0.351,0.332,0.314,0.173,0.104,south-southeast,0.7,No
2017/09/22,10:10,0.348,0.214,0.350,0.330,0.320,0.173,0.103,south-southeast,1.0,No
2017/09/22,10:20,0.346,0.217,0.355,0.330,0.317,0.174,0.102,south-southeast,1.1,No
2017/09/22,10:30,0.342,0.216,0.352,0.326,0.317,0.174,0.102,south-southeast,1.8,No
2017/09/22,10:40,0.342,0.214,0.349,0.328,0.314,0.174,0.101,south-southeast,2.4,No
2017/09/22,10:50,0.341,0.214,0.352,0.326,0.315,0.173,0.102,south-southeast,2.8,No
2017/09/22,11:00,0.341,0.213,0.354,0.328,0.314,0.174,0.102,south-southeast,2.6,No
2017/09/22,11:10,0.348,0.213,0.350,0.330,0.314,0.174,0.103,south-southeast,2.5,No
2017/09/22,11:20,0.347,0.218,0.349,0.334,0.318,0.174,0.103,south-southeast,1.9,No
2017/09/22,11:30,0.346,0.216,0.352,0.332,0.319,0.173,0.103,south-southeast,2.2,No
2017/09/22,11:40,0.343,0.216,0.355,0.331,0.319,0.174,0.102,southeast,1.8,No
2017/09/22,11:50,0.343,0.215,0.353,0.330,0.318,0.174,0.103,south-southeast,2.6,No
2017/09/22,12:00,0.342,0.215,0.353,0.328,0.316,0.173,0.103,south-southeast,2.6,No
2017/09/22,12:10,0.342,0.215,0.350,0.329,0.316,0.173,0.102,south-southeast,2.8,No
2017/09/22,12:20,0.343,0.215,0.350,0.330,0.315,0.174,0.103,south-southeast,3.1,No
2017/09/22,12:30,0.343,0.214,0.349,0.329,0.316,0.175,0.102,south-southeast,2.5,No
2017/09/22,12:40,0.346,0.213,0.351,0.329,0.315,0.174,0.103,south,2.9,No
2017/09/22,12:50,0.348,0.214,0.355,0.334,0.316,0.175,0.104,south-southeast,1.9,No
2017/09/22,13:00,0.346,0.216,0.355,0.335,0.321,0.174,0.104,southeast,0.6,No
2017/09/22,13:10,0.344,0.217,0.352,0.331,0.319,0.174,0.103,east-southeast,0.7,No
2017/09/22,13:20,0.347,0.216,0.350,0.331,0.316,0.175,0.103,south-southeast,0.8,No
2017/09/22,13:30,0.349,0.214,0.355,0.333,0.314,0.175,0.104,south-southeast,1.9,No
2017/09/22,13:40,0.347,0.218,0.355,0.334,0.319,0.173,0.103,southeast,1.2,No
2017/09/22,13:50,0.345,0.216,0.351,0.331,0.321,0.176,0.103,south,1.2,No
2017/09/22,14:00,0.347,0.214,0.353,0.329,0.317,0.174,0.103,south-southwest,0.7,No
2017/09/22,14:10,0.348,0.215,0.353,0.335,0.316,0.175,0.105,south-southwest,0.9,No
2017/09/22,14:20,0.346,0.216,0.351,0.331,0.319,0.174,0.104,south-southwest,1.4,No
2017/09/22,14:30,0.345,0.215,0.352,0.329,0.320,0.175,0.103,south,1.4,No
2017/09/22,14:40,0.349,0.214,0.355,0.333,0.317,0.174,0.103,south,1.0,No
2017/09/22,14:50,0.347,0.216,0.353,0.332,0.317,0.174,0.103,south-southwest,1.3,No
2017/09/22,15:00,0.343,0.217,0.352,0.330,0.321,0.175,0.103,south,1.6,Yes
2017/09/22,15:10,0.348,0.215,0.356,0.332,0.317,0.176,0.103,south,1.9,No
2017/09/22,15:20,0.346,0.215,0.352,0.333,0.315,0.175,0.103,south,2.8,No
2017/09/22,15:30,0.345,0.217,0.353,0.329,0.319,0.174,0.103,south,3.9,No
2017/09/22,15:40,0.347,0.216,0.354,0.332,0.318,0.174,0.101,south,3.1,No
2017/09/22,15:50,0.349,0.215,0.352,0.333,0.317,0.173,0.103,south,2.3,Yes
2017/09/22,16:00,0.346,0.216,0.353,0.330,0.319,0.174,0.103,south,3.4,No
2017/09/22,16:10,0.346,0.216,0.357,0.331,0.320,0.175,0.103,south,3.1,Yes
2017/09/22,16:20,0.350,0.215,0.353,0.333,0.316,0.174,0.103,south,3.1,Yes
2017/09/22,16:30,0.346,0.217,0.355,0.332,0.319,0.174,0.103,south,3.0,Yes
2017/09/22,16:40,0.346,0.216,0.355,0.332,0.320,0.176,0.104,south-southeast,3.2,Yes
2017/09/22,16:50,0.349,0.217,0.351,0.334,0.317,0.175,0.104,south,2.9,No
2017/09/22,17:00,0.346,0.217,0.356,0.330,0.321,0.177,0.104,south,2.2,No
2017/09/22,17:10,0.348,0.216,0.353,0.335,0.318,0.175,0.104,south,1.7,Yes
2017/09/22,17:20,0.348,0.217,0.355,0.332,0.317,0.175,0.104,south,1.8,No
2017/09/22,17:30,0.345,0.215,0.356,0.330,0.320,0.176,0.104,south,1.9,Yes
2017/09/22,17:40,0.349,0.216,0.352,0.335,0.316,0.175,0.104,south-southeast,1.9,Yes
2017/09/22,17:50,0.347,0.217,0.356,0.332,0.319,0.175,0.103,south-southwest,2.2,Yes
2017/09/22,18:00,0.345,0.217,0.354,0.334,0.319,0.176,0.104,south-southwest,1.4,Yes
2017/09/22,18:10,0.348,0.218,0.356,0.333,0.318,0.175,0.104,south-southwest,2.5,Yes
2017/09/22,18:20,0.344,0.215,0.356,0.331,0.319,0.176,0.104,south-southwest,2.0,No
2017/09/22,18:30,0.350,0.216,0.355,0.335,0.316,0.176,0.104,south-southeast,1.7,No
2017/09/22,18:40,0.347,0.216,0.355,0.331,0.319,0.174,0.103,south,1.9,Yes
2017/09/22,18:50,0.347,0.217,0.353,0.333,0.320,0.176,0.104,south-southeast,1.7,Yes
2017/09/22,19:00,0.349,0.215,0.356,0.332,0.317,0.175,0.105,south,1.7,Yes
2017/09/22,19:10,0.344,0.216,0.353,0.331,0.319,0.175,0.105,south-southeast,1.6,No
2017/09/22,19:20,0.347,0.217,0.354,0.333,0.316,0.174,0.104,south-southeast,1.5,No
2017/09/22,19:30,0.345,0.216,0.354,0.332,0.318,0.174,0.104,south-southwest,1.4,No
2017/09/22,19:40,0.346,0.217,0.351,0.333,0.319,0.175,0.105,south,1.0,No
2017/09/22,19:50,0.349,0.216,0.354,0.332,0.316,0.174,0.104,south,0.9,Yes
2017/09/22,20:00,0.344,0.216,0.352,0.331,0.319,0.175,0.103,south-southwest,0.8,No
2017/09/22,20:10,0.348,0.215,0.355,0.333,0.316,0.174,0.105,south-southwest,1.3,Yes
2017/09/22,20:20,0.345,0.216,0.353,0.331,0.316,0.173,0.103,south-southwest,1.3,Yes
2017/09/22,20:30,0.346,0.215,0.351,0.332,0.318,0.175,0.104,south-southwest,0.9,Yes
2017/09/22,20:40,0.347,0.215,0.357,0.331,0.317,0.173,0.103,-,CALM,No
2017/09/22,20:50,0.345,0.215,0.352,0.333,0.319,0.176,0.104,west-southwest,0.5,Yes
2017/09/22,21:00,0.348,0.215,0.356,0.333,0.317,0.174,0.103,-,CALM,No
2017/09/22,21:10,0.343,0.216,0.353,0.330,0.318,0.173,0.104,west-southwest,0.8,No
2017/09/22,21:20,0.346,0.214,0.352,0.333,0.320,0.175,0.104,southwest,0.6,No
2017/09/22,21:30,0.348,0.216,0.354,0.331,0.315,0.174,0.104,south,0.6,Yes
2017/09/22,21:40,0.344,0.215,0.352,0.332,0.319,0.174,0.104,southeast,0.8,No
2017/09/22,21:50,0.348,0.216,0.356,0.333,0.316,0.176,0.103,south,0.8,No
2017/09/22,22:00,0.345,0.216,0.353,0.330,0.317,0.174,0.104,south-southeast,1.0,No
2017/09/22,22:10,0.347,0.214,0.355,0.334,0.318,0.174,0.104,south-southeast,1.5,No
2017/09/22,22:20,0.346,0.215,0.354,0.330,0.314,0.174,0.103,south-southeast,1.1,No
2017/09/22,22:30,0.344,0.215,0.353,0.333,0.318,0.174,0.104,south-southeast,1.8,No
2017/09/22,22:40,0.348,0.217,0.354,0.331,0.316,0.174,0.103,southeast,2.5,No
2017/09/22,22:50,0.345,0.215,0.352,0.331,0.317,0.173,0.104,south-southeast,2.0,No
2017/09/22,23:00,0.346,0.216,0.356,0.332,0.316,0.175,0.103,south-southeast,2.5,No
2017/09/22,23:10,0.345,0.215,0.352,0.331,0.315,0.174,0.104,south-southeast,2.7,No
2017/09/22,23:20,0.344,0.216,0.354,0.332,0.317,0.174,0.103,south-southeast,2.8,No
2017/09/22,23:30,0.348,0.215,0.353,0.331,0.315,0.174,0.103,south-southeast,3.4,Yes
2017/09/22,23:40,0.345,0.215,0.351,0.330,0.318,0.174,0.104,south,3.1,Yes
2017/09/22,23:50,0.346,0.216,0.354,0.333,0.318,0.174,0.103,south,2.4,Yes
